Date,TemperatureHighF,TemperatureAvgF,TemperatureLowF,DewpointHighF,DewpointAvgF,DewpointLowF,HumidityHigh,HumidityAvg,HumidityLow,PressureMaxIn,PressureMinIn,WindSpeedMaxMPH,WindSpeedAvgMPH,GustSpeedMaxMPH,PrecipitationSumIn
2012-1-1,57,47,39,32,25,18,55,42,30,17.72,17.72,20,5,20,0.00
2012-1-2,51,39,30,22,13,7,44,35,27,17.72,17.72,15,4,15,0.00
2012-1-3,54,41,27,26,18,8,46,39,32,17.72,17.72,20,6,20,0.00
2012-1-4,61,49,36,34,26,21,58,42,32,17.72,17.72,15,2,15,0.00
2012-1-5,68,54,37,38,29,24,60,41,28,17.72,17.72,15,6,15,0.00
2012-1-6,69,57,44,42,34,28,58,43,33,17.72,17.72,18,7,18,0.00
2012-1-7,58,50,40,31,27,23,53,42,34,17.72,17.72,15,5,15,0.00
2012-1-8,54,47,39,29,26,22,58,43,38,17.72,17.72,5,0,6,0.00
2012-1-9,54,44,32,34,26,23,73,52,36,17.72,17.72,15,2,15,0.00
2012-1-10,52,45,35,33,27,23,65,51,42,17.72,17.72,12,2,12,0.00
2012-1-11,65,46,31,38,30,21,78,57,34,17.72,17.72,28,6,28,0.00
2012-1-12,38,30,21,22,11,5,67,46,40,17.72,17.72,19,7,21,0.00
2012-1-13,49,36,21,21,12,2,44,38,30,17.72,17.72,10,4,10,0.00
2012-1-14,57,45,35,30,22,16,53,41,33,17.72,17.72,20,5,20,0.00
2012-1-15,58,50,36,40,30,20,62,46,42,17.72,17.72,24,7,24,0.00
2012-1-16,71,63,56,57,51,41,79,65,50,17.72,17.72,29,14,30,0.00
2012-1-17,64,40,28,57,21,10,79,49,40,17.72,17.72,28,6,28,0.00
2012-1-18,46,35,21,23,16,8,61,47,38,17.72,17.72,15,3,15,0.00
2012-1-19,59,43,33,33,25,18,66,50,37,17.72,17.72,13,2,13,0.00
2012-1-20,41,34,27,34,25,17,78,68,54,17.72,17.72,13,1,13,0.00
2012-1-21,41,34,21,34,18,8,78,53,42,17.72,17.72,15,1,16,0.00
2012-1-22,67,51,41,52,39,29,88,68,31,17.72,17.72,31,11,31,0.04
2012-1-23,60,49,36,34,27,17,68,45,29,17.72,17.72,13,2,13,0.00
2012-1-24,64,51,36,37,24,16,61,37,25,17.72,17.72,19,3,19,0.00
2012-1-25,50,46,43,43,40,37,87,81,62,17.72,17.72,13,3,13,0.47
2012-1-26,59,49,42,44,34,18,88,60,31,17.72,17.72,22,5,23,0.00
2012-1-27,61,47,35,37,28,18,69,47,36,17.72,17.72,31,6,31,0.00
2012-1-28,59,44,30,31,21,16,58,41,28,17.72,17.72,23,4,23,0.00
2012-1-29,63,49,34,34,25,15,51,39,30,17.72,17.72,16,7,16,0.00
2012-1-30,68,56,40,49,36,24,73,48,36,17.72,17.72,26,9,26,0.00
2012-1-31,70,61,52,54,49,38,82,66,46,17.72,17.72,24,8,24,0.00
2012-2-1,66,55,43,38,33,26,61,44,33,17.72,17.72,12,3,12,0.00
2012-2-2,67,56,43,47,36,23,62,47,36,17.72,17.72,14,2,14,0.00
2012-2-3,59,55,50,57,48,40,96,79,52,17.72,17.72,20,2,20,0.83
2012-2-4,51,46,40,50,40,30,96,80,66,17.72,17.72,18,6,18,0.00
2012-2-5,49,41,38,35,30,24,75,63,47,17.72,17.72,18,4,18,0.00
2012-2-6,61,47,31,38,28,24,74,50,35,17.72,17.72,8,1,8,0.00
2012-2-7,52,44,39,38,32,24,80,63,46,0.00,40.00,14,3,17,0.00
2012-2-8,44,40,38,34,32,28,83,74,65,0.00,40.00,10,1,13,0.00
2012-2-9,49,43,38,39,32,28,87,68,52,17.72,17.72,9,0,9,0.04
2012-2-10,42,37,25,39,27,7,89,69,45,17.72,17.72,21,6,21,0.04
2012-2-11,32,27,19,12,8,3,52,45,42,17.72,17.72,20,6,20,0.00
2012-2-12,66,33,31,10,8,1,42,36,21,29.77,17.72,15,2,15,0.00
2012-2-13,38,35,32,35,29,10,93,82,34,29.53,29.18,20,5,20,0.08
2012-2-14,51,42,31,40,35,28,96,78,55,29.35,29.26,11,3,11,0.00
2012-2-15,51,47,42,50,45,37,100,93,79,29.44,29.18,16,2,16,0.12
2012-2-16,58,50,41,46,37,29,94,63,42,29.68,29.44,15,2,15,0.00
2012-2-17,58,49,39,45,39,29,82,67,50,29.56,29.44,10,2,10,0.00
2012-2-18,51,45,40,45,38,31,86,76,67,29.50,29.41,17,4,17,0.00
2012-2-19,63,49,36,36,32,28,75,53,36,29.50,29.35,9,1,9,0.00
2012-2-20,54,48,42,46,40,32,88,73,62,29.41,29.12,29,10,29,0.08
2012-2-21,66,53,37,37,30,24,63,43,31,29.44,29.21,17,6,17,0.00
2012-2-22,73,58,41,42,34,27,65,42,26,29.21,28.82,15,4,15,0.00
2012-2-23,76,60,47,43,34,22,50,38,31,29.29,28.61,31,8,31,0.00
2012-2-24,58,48,36,31,22,18,50,37,29,29.65,29.29,20,6,20,0.00
2012-2-25,61,50,33,32,24,18,56,38,27,29.71,29.41,19,6,20,0.00
2012-2-26,67,57,45,39,31,21,52,38,33,29.56,29.35,23,8,25,0.00
2012-2-27,64,57,47,40,30,24,55,37,31,29.74,29.56,13,3,14,0.00
2012-2-28,67,59,52,62,48,0,88,67,37,29.59,29.06,28,8,28,0.47
2012-2-29,70,60,48,48,29,20,59,35,24,29.36,29.15,17,4,17,0.00
2012-3-1,76,63,47,55,29,20,72,32,22,29.30,28.82,25,8,25,0.00
2012-3-2,64,55,42,58,36,24,82,51,36,29.36,28.80,22,6,22,0.00
2012-3-3,62,50,37,30,24,18,66,41,25,29.50,29.33,22,4,22,0.00
2012-3-4,72,55,38,31,25,18,49,35,23,29.56,29.36,22,6,22,0.00
2012-3-5,71,58,42,33,28,20,42,34,26,29.71,29.47,19,6,19,0.00
2012-3-6,72,63,54,47,41,32,60,46,38,29.47,29.27,32,12,32,0.00
2012-3-7,69,65,62,58,54,47,81,68,59,29.33,29.24,28,11,28,0.00
2012-3-8,64,44,37,58,38,30,86,79,70,29.86,29.30,26,6,26,0.51
2012-3-9,63,50,34,36,28,23,75,48,31,29.89,29.77,16,2,16,0.00
2012-3-10,66,55,40,40,29,23,69,40,27,29.77,29.50,19,4,19,0.00
2012-3-11,54,51,47,52,48,41,96,90,71,29.50,29.24,17,5,17,0.91
2012-3-12,77,65,52,57,50,44,95,66,38,29.39,29.21,20,4,20,0.00
2012-3-13,83,68,54,62,55,49,91,67,42,29.42,29.33,23,6,23,0.00
2012-3-14,75,68,63,63,61,58,93,77,63,29.44,29.36,23,8,23,0.00
2012-3-15,83,73,66,67,62,59,86,71,56,29.44,29.39,23,5,23,0.00
2012-3-16,80,71,64,66,63,60,92,76,62,29.44,29.36,20,4,20,0.00
2012-3-17,76,71,67,65,61,58,87,73,60,29.39,29.27,0,0,0,0.00
2012-3-18,75,70,66,63,60,58,82,72,62,29.36,29.21,0,0,0,0.00
2012-3-19,69,63,57,64,59,55,100,87,77,29.21,29.09,17,1,17,2.99
2012-3-20,59,57,55,58,56,54,100,97,93,29.24,29.12,13,1,13,1.65
2012-3-21,58,55,49,57,54,47,100,94,80,29.24,29.12,23,1,23,0.39
2012-3-22,60,52,47,50,48,44,100,86,62,29.27,29.18,19,3,19,0.16
2012-3-23,64,55,47,54,48,44,95,80,58,29.39,29.27,15,3,15,0.04
2012-3-24,78,64,47,54,47,43,88,58,35,29.44,29.36,10,1,10,0.00
2012-3-25,83,69,52,54,48,44,81,51,32,29.50,29.39,9,1,9,0.00
2012-3-26,82,71,57,55,51,45,73,52,39,29.47,29.36,17,3,17,0.00
2012-3-27,84,73,62,60,55,51,81,56,38,29.42,29.33,24,8,24,0.00
2012-3-28,84,73,63,62,58,54,80,61,48,29.39,29.30,20,6,20,0.00
2012-3-29,81,72,61,64,58,54,84,63,52,29.33,29.18,19,6,19,0.00
2012-3-30,88,75,64,66,60,55,89,62,39,29.27,29.15,25,5,25,0.00
2012-3-31,88,76,63,71,62,57,88,65,47,29.27,29.18,13,3,13,0.00
2012-4-1,88,78,66,68,64,60,94,66,42,29.18,29.00,25,8,25,0.00
2012-4-2,83,75,67,65,62,53,88,65,48,29.18,28.97,23,7,23,0.00
2012-4-3,76,68,62,62,58,56,84,71,55,29.33,29.12,17,2,17,0.00
2012-4-4,74,66,60,61,54,40,90,68,41,29.21,29.12,13,2,13,0.00
2012-4-5,67,60,53,57,51,44,84,73,57,29.39,29.15,11,2,11,0.00
2012-4-6,68,60,52,54,51,47,86,75,61,29.50,29.36,10,2,10,0.00
2012-4-7,66,60,57,58,54,48,93,80,57,29.68,29.42,14,1,14,0.28
2012-4-8,71,62,53,58,53,44,92,75,48,29.71,29.56,11,2,11,0.00
2012-4-9,78,68,59,64,58,53,94,72,47,29.59,29.44,11,1,11,0.00
2012-4-10,74,67,61,58,51,40,84,61,43,29.53,29.44,10,2,10,0.00
2012-4-11,63,57,51,49,43,39,83,62,45,29.65,29.50,11,1,11,0.16
2012-4-14,76,74,65,69,65,0,96,76,69,29.27,29.03,29,8,29,0.16
2012-4-15,75,68,0,64,55,40,88,64,41,29.24,29.00,20,5,20,0.94
2012-4-16,74,64,51,46,42,38,68,47,34,29.62,29.24,10,1,10,0.00
2012-4-17,77,66,52,50,44,40,72,49,33,29.65,29.56,13,2,13,0.00
2012-4-18,77,67,55,55,50,45,75,57,44,29.56,29.36,19,7,19,0.00
2012-4-19,79,70,57,61,52,47,77,55,42,29.36,29.12,27,8,27,0.00
2012-4-20,68,68,68,62,61,61,79,79,78,29.21,29.21,6,5,6,0.04
2012-4-30,81,72,61,71,65,59,95,78,66,29.42,29.27,13,4,13,0.12
2012-5-1,80,77,74,66,65,64,71,68,63,29.18,29.15,17,8,17,0.08
2012-5-2,85,77,70,70,66,62,80,70,60,29.27,29.18,23,9,23,0.00
2012-5-3,89,80,69,74,70,65,87,71,60,29.30,29.24,22,6,22,0.00
2012-5-4,88,80,72,74,70,67,85,73,60,29.33,29.18,25,4,25,0.00
2012-5-5,88,76,70,69,67,64,92,76,50,29.27,29.24,0,0,0,0.00
2012-5-12,80,64,0,62,52,0,75,57,51,29.59,29.53,11,3,11,0.00
2012-5-13,80,74,66,63,57,52,78,57,44,29.59,29.53,11,3,11,0.00
2012-5-14,84,72,60,61,52,45,82,54,32,29.56,29.44,12,1,12,0.00
2012-5-15,86,73,57,59,49,43,81,48,30,29.50,29.42,9,1,9,0.00
2012-5-16,90,77,60,60,53,45,76,48,31,29.47,29.39,6,1,6,0.00
2012-5-17,91,79,64,61,55,49,73,48,29,29.42,29.27,15,3,15,0.00
2012-5-18,88,78,66,61,56,53,74,51,36,29.33,29.21,28,7,28,0.00
2012-5-19,86,77,68,60,54,47,69,48,29,29.36,29.24,29,9,29,0.00
2012-5-20,82,76,69,65,60,54,74,60,48,29.53,29.36,4,0,11,0.00
2012-5-21,83,73,62,58,51,43,78,50,34,29.62,29.50,15,2,15,0.00
2012-5-22,84,73,58,49,46,43,62,41,30,29.53,29.21,13,3,13,0.00
2012-5-23,89,79,66,62,55,47,62,47,37,29.21,28.97,28,10,28,0.16
2012-5-24,85,79,73,70,65,58,76,65,52,29.24,28.91,29,9,29,0.00
2012-5-25,88,81,74,71,69,68,83,68,54,29.47,29.24,26,4,26,0.00
2012-5-26,89,82,74,71,68,63,86,66,49,29.56,29.47,22,4,22,0.00
2012-5-27,90,82,72,66,61,55,77,53,34,29.53,29.36,26,6,26,0.00
2012-5-28,93,83,72,71,65,58,69,56,44,29.42,29.30,33,8,33,0.08
2012-5-29,95,83,71,71,64,55,84,57,35,29.47,29.30,18,3,23,0.24
2012-5-30,90,79,67,61,58,53,77,53,33,29.50,29.27,13,2,13,0.00
2012-5-31,78,70,62,65,56,45,92,64,41,29.59,29.24,34,6,34,0.63
2012-6-1,75,64,54,57,51,47,83,65,42,29.62,29.50,11,2,11,0.04
2012-6-2,85,72,56,63,58,52,88,64,41,29.53,29.42,9,1,9,0.04
2012-6-3,90,80,70,73,68,60,87,67,53,29.47,29.36,13,2,13,0.00
2012-6-4,88,81,68,73,69,63,93,71,50,29.50,29.36,16,2,16,4.72
2012-6-5,91,81,71,73,67,59,89,66,45,29.47,29.36,12,2,12,0.00
2012-6-6,87,78,68,64,59,55,71,54,38,29.53,29.42,12,2,12,0.00
2012-6-7,82,75,67,59,56,51,69,54,39,29.65,29.53,11,1,11,0.00
2012-6-8,86,76,64,57,53,48,68,48,32,29.65,29.50,8,1,8,0.00
2012-6-9,90,80,66,66,62,52,76,56,45,29.50,29.30,19,4,19,0.00
2012-6-10,90,82,72,72,68,62,78,63,52,29.39,29.27,23,6,23,0.00
2012-6-11,86,81,75,76,71,68,81,73,66,29.62,29.33,13,0,13,0.00
2012-6-12,88,80,70,70,56,48,85,51,29,29.74,29.59,10,1,10,0.00
2012-6-13,86,76,67,70,61,52,71,61,49,29.65,29.50,12,3,14,0.00
2012-6-14,91,81,69,72,66,61,78,63,48,29.56,29.36,17,6,17,0.00
2012-6-15,89,77,67,73,68,62,92,74,56,29.59,29.42,26,4,26,0.31
2012-6-17,82,81,80,69,68,0,67,66,66,29.42,29.39,12,7,12,0.00
2012-6-18,91,84,74,70,65,56,80,57,35,29.42,29.36,24,8,24,0.00
2012-6-19,89,81,74,72,68,63,84,67,48,29.50,29.39,24,9,24,0.00
2012-6-20,88,81,74,72,68,64,83,67,50,29.56,29.47,20,5,20,0.00
2012-6-21,85,78,69,74,69,64,94,76,65,29.71,29.53,13,3,13,0.35
2012-6-22,89,76,69,72,69,67,94,81,51,29.62,29.59,8,0,8,0.00
2012-6-25,102,94,76,74,67,58,75,46,29,29.56,29.39,8,1,8,0.00
2012-6-26,101,92,79,74,69,62,75,51,32,29.47,29.39,11,2,11,0.00
2012-6-27,100,90,79,67,61,52,56,41,32,29.56,29.42,17,6,17,0.00
2012-6-28,102,90,72,66,56,48,51,36,25,29.62,29.50,15,5,15,0.00
2012-6-29,101,90,77,68,60,55,62,40,27,29.59,29.44,17,5,17,0.00
2012-6-30,100,90,77,68,61,55,62,41,30,29.50,29.42,16,6,16,0.00
2012-7-1,97,88,75,71,63,57,66,46,34,29.59,29.50,20,5,20,0.00
2012-7-2,96,85,75,74,68,62,77,60,37,29.65,29.56,21,6,21,0.39
2012-7-3,98,88,77,73,63,49,78,50,26,29.62,29.47,17,5,17,0.00
2012-7-4,99,90,77,70,61,53,67,43,27,29.59,29.50,18,7,18,0.00
2012-7-5,101,91,77,68,61,54,66,42,27,29.65,29.53,15,4,15,0.00
2012-7-6,102,92,76,67,61,54,67,41,26,29.65,29.53,14,2,14,0.00
2012-7-7,94,86,78,75,67,58,79,56,33,29.71,29.56,9,1,9,0.00
2012-7-8,96,86,78,74,67,61,74,57,35,29.68,29.53,11,1,11,0.00
2012-7-9,97,86,74,75,68,60,84,58,34,29.62,29.53,12,1,12,0.00
2012-7-10,95,87,76,74,65,54,82,53,32,29.65,29.56,15,2,15,0.00
2012-7-11,98,88,73,73,61,48,80,47,25,29.65,29.53,10,0,10,0.00
2012-7-12,98,88,75,70,61,52,72,45,26,29.65,29.53,8,0,8,0.00
2012-7-13,100,86,75,72,65,57,74,54,29,29.68,29.59,17,2,17,0.00
2012-7-14,99,85,71,73,64,54,85,56,27,29.71,29.56,16,2,16,0.00
2012-7-15,94,81,69,72,66,61,84,64,38,29.74,29.59,17,2,17,0.04
2012-7-16,96,85,74,74,68,60,89,61,37,29.68,29.53,17,7,17,0.00
2012-7-17,101,90,78,71,63,54,70,46,28,29.65,29.53,17,8,18,0.00
2012-7-18,104,93,79,69,61,54,66,40,25,29.98,17.72,16,6,17,0.00
2012-7-19,107,93,82,70,64,55,62,43,24,17.72,17.72,24,6,24,0.04
2012-7-20,105,92,75,74,60,43,80,44,18,17.72,17.72,15,4,15,0.00
2012-7-21,102,91,77,68,56,46,60,36,20,17.72,17.72,15,4,15,0.00
2012-7-22,101,92,80,71,58,45,61,38,19,17.72,17.72,13,5,13,0.00
2012-7-23,102,92,80,71,63,55,70,43,28,17.72,17.72,20,6,20,0.00
2012-7-24,102,92,79,72,64,55,73,45,26,17.72,17.72,23,7,23,0.00
2012-7-25,104,93,80,70,63,55,67,42,26,17.72,17.72,24,9,24,0.00
2012-7-26,97,88,80,76,67,60,69,51,35,17.72,17.72,18,5,18,0.00
2012-7-27,103,90,74,76,63,46,89,50,19,17.72,17.72,12,4,12,0.00
2012-7-28,107,95,80,70,57,39,63,35,15,17.72,17.72,15,3,15,0.00
2012-7-29,109,97,83,63,53,40,49,28,17,17.72,17.72,18,5,18,0.00
2012-7-30,110,98,85,57,49,41,36,23,16,17.72,17.72,13,5,13,0.00
2012-7-31,110,98,84,60,50,42,42,25,15,17.72,17.72,17,6,17,0.00
2012-8-1,108,98,83,64,57,45,53,31,18,17.72,17.72,13,4,13,0.00
2012-8-2,109,98,84,62,55,44,45,29,16,17.72,17.72,17,3,18,0.00
2012-8-3,105,95,84,64,59,54,51,35,25,17.72,17.72,17,4,17,0.00
2012-8-4,108,95,81,74,61,50,78,39,21,17.72,17.72,18,6,18,0.43
2012-8-5,92,84,74,74,65,50,88,59,29,17.72,17.72,18,2,18,0.35
2012-8-6,99,88,72,69,52,38,64,36,17,17.72,17.72,8,0,8,0.00
2012-8-7,103,91,78,69,56,40,61,35,19,17.72,17.72,10,1,10,0.00
2012-8-8,102,89,78,69,62,52,66,45,26,17.72,17.72,17,4,17,0.00
2012-8-9,98,87,74,72,62,52,80,50,27,17.72,17.72,17,2,17,0.00
2012-8-10,94,84,71,61,52,38,69,39,20,17.72,17.72,18,4,18,0.00
2012-8-11,93,81,65,54,48,41,58,36,22,17.72,17.72,10,1,11,0.00
2012-8-12,96,85,74,67,57,44,54,42,31,17.72,17.72,16,4,16,0.00
2012-8-13,89,82,72,59,55,51,63,43,33,17.72,17.72,17,4,17,0.00
2012-8-14,84,75,68,62,58,52,76,59,38,17.72,17.72,10,0,10,0.00
2012-8-15,98,84,69,69,63,59,75,53,33,17.72,17.72,14,4,14,0.00
2012-8-16,101,87,75,72,67,52,78,54,33,17.72,17.72,15,3,15,0.00
2012-8-17,87,79,69,55,50,45,58,41,29,17.72,17.72,13,2,13,0.00
2012-8-18,78,74,68,70,62,46,89,71,37,17.72,17.72,10,0,10,0.16
2012-8-19,90,77,65,70,63,54,91,67,39,17.72,17.72,17,1,17,0.08
2012-8-20,91,79,70,61,49,34,73,46,19,17.72,17.72,11,1,11,0.00
2012-8-21,86,86,86,35,35,35,20,20,20,17.72,17.72,9,1,9,0.00
2012-8-22,86,86,86,35,35,35,20,20,20,17.72,17.72,17,3,17,0.00
2012-8-23,86,86,86,35,35,35,20,20,20,17.72,17.72,21,4,21,0.00
2012-8-24,86,86,86,35,35,35,20,20,20,17.72,17.72,17,3,17,0.00
2012-8-25,87,82,74,73,59,35,94,56,20,17.72,17.72,18,4,18,1.06
2012-8-26,90,79,0,77,71,66,96,77,49,17.72,17.72,11,2,11,0.51
2012-8-27,92,84,72,75,68,60,89,62,40,17.72,17.72,12,2,12,0.00
2012-8-28,93,83,69,67,58,46,80,49,25,17.72,17.72,9,0,9,0.00
2012-8-29,94,84,70,63,53,40,69,41,20,17.72,17.72,7,0,10,0.00
2012-8-30,96,88,71,64,58,50,60,40,30,17.72,17.72,13,1,13,0.00
2012-8-31,86,79,74,74,68,63,90,71,54,17.72,17.72,20,4,20,0.12
2012-9-1,98,86,77,70,63,55,68,51,28,17.72,17.72,17,2,17,0.00
2012-9-2,99,88,74,72,68,63,81,55,36,17.72,17.72,8,0,8,0.00
2012-9-3,105,92,76,70,64,54,75,45,25,17.72,17.72,11,2,11,0.00
2012-9-4,105,94,80,66,60,51,63,38,25,17.72,17.72,13,3,13,0.00
2012-9-5,101,90,77,71,63,55,72,45,27,17.72,17.72,13,1,13,0.00
2012-9-6,100,89,78,73,66,58,70,50,31,17.72,17.72,11,2,11,0.00
2012-9-7,102,81,67,70,64,56,81,59,29,17.72,17.72,35,4,35,0.51
2012-9-8,83,72,60,61,50,42,82,53,30,17.72,17.72,17,4,17,0.00
2012-9-9,90,75,60,54,47,40,72,43,27,17.72,17.72,13,1,13,0.00
2012-9-10,89,76,61,54,49,43,69,43,28,17.72,17.72,10,1,10,0.00
2012-9-11,92,80,66,58,51,44,71,42,25,17.72,17.72,17,5,17,0.00
2012-9-12,90,80,69,59,54,48,66,45,30,17.72,17.72,22,4,22,0.00
2012-9-13,87,74,64,65,59,54,73,61,43,17.72,17.72,17,3,20,0.00
2012-9-14,64,61,59,62,58,55,96,90,73,17.72,17.72,13,2,13,0.31
2012-9-15,73,68,63,67,65,61,96,91,79,17.72,17.72,6,0,6,0.24
2012-9-16,75,70,67,68,65,61,95,84,65,17.72,17.72,8,1,8,0.00
2012-9-17,84,74,63,68,62,57,93,71,47,17.72,17.72,18,1,18,0.00
2012-9-18,78,69,57,60,48,41,81,52,33,17.72,17.72,17,2,17,0.12
2012-9-19,84,72,59,51,46,42,68,44,30,17.72,17.72,18,5,18,0.00
2012-9-20,89,77,65,59,52,45,63,45,33,17.72,17.72,17,2,17,0.00
2012-9-21,93,80,68,61,55,43,75,48,28,17.72,17.72,15,2,15,0.00
2012-9-22,89,75,63,51,43,34,59,36,24,17.72,17.72,13,2,13,0.00
2012-9-23,77,67,56,49,42,32,66,43,33,17.72,17.72,11,1,11,0.08
2012-9-24,88,74,62,62,53,44,61,51,35,17.72,17.72,20,4,20,0.00
2012-9-25,96,85,76,62,55,47,59,40,29,17.72,17.72,20,8,20,0.00
2012-9-26,81,75,68,68,61,48,88,66,37,17.72,17.72,11,1,11,0.47
2012-9-27,82,74,65,67,64,62,91,72,55,17.72,17.72,11,1,11,0.12
2012-9-28,86,76,65,70,65,62,90,71,49,17.72,17.72,8,0,8,0.00
2012-9-29,75,70,67,68,65,60,91,84,72,17.72,17.72,6,0,6,0.00
2012-9-30,75,69,65,60,55,46,77,63,39,17.72,17.72,8,0,8,0.00
2012-10-1,79,69,62,53,50,44,68,53,32,17.72,17.72,15,3,19,0.00
2012-10-2,81,66,58,50,47,45,64,53,32,17.72,17.72,12,2,13,0.00
2012-10-13,68,68,67,67,66,64,95,93,91,0.00,0.00,15,6,15,0.00
2012-10-14,79,69,58,65,52,43,92,59,33,30.03,0.00,15,1,15,0.00
2012-10-15,87,72,55,53,48,45,71,46,28,30.03,29.85,12,3,12,0.00
2012-10-16,82,72,61,53,48,46,65,44,31,29.88,29.59,23,6,23,0.00
2012-10-17,77,68,57,66,53,34,88,63,34,29.80,29.41,22,4,22,0.00
2012-10-18,72,62,50,38,30,24,49,31,20,29.85,29.77,25,4,25,0.00
2012-10-19,71,62,53,33,29,23,42,28,24,29.88,29.77,19,4,19,0.00
2012-10-20,81,66,47,55,43,30,65,46,32,29.83,29.68,13,2,13,0.00
2012-10-21,83,74,65,70,64,55,86,71,60,29.83,29.74,19,3,19,0.00
2012-10-22,79,74,71,68,66,62,87,76,59,29.91,29.83,0,0,0,0.00
2012-10-23,80,73,69,69,67,65,90,81,67,29.88,29.80,22,5,22,0.00
2012-10-24,85,75,68,68,64,60,88,71,50,29.88,29.77,22,4,22,0.00
2012-10-25,71,70,61,65,64,52,87,81,72,29.91,29.74,15,1,15,0.00
2012-10-26,45,45,44,28,28,28,52,51,51,30.30,30.30,8,3,8,0.00
2012-10-27,58,50,34,35,29,25,72,46,38,30.30,30.15,8,1,9,0.00
2012-10-28,60,48,0,37,29,24,71,48,35,30.27,30.18,10,0,10,0.00
2012-10-29,65,53,38,36,30,26,68,44,31,30.24,30.06,10,1,10,0.00
2012-10-30,74,59,43,42,35,28,62,42,29,30.06,29.83,11,1,11,0.00
2012-10-31,70,59,45,39,36,32,62,43,31,30.03,29.88,9,0,9,0.00
2012-11-1,78,63,46,44,40,33,71,45,29,30.00,29.85,9,0,9,0.00
2012-11-2,85,69,53,54,47,42,73,48,29,29.91,29.77,22,3,22,0.00
2012-11-3,70,61,51,48,38,33,51,42,33,30.12,29.85,12,1,12,0.00
2012-11-4,70,58,44,42,36,32,70,46,32,30.15,30.00,8,0,8,0.00
2012-11-5,71,58,47,46,39,35,70,50,37,30.09,29.97,13,1,13,0.00
2012-11-6,68,55,39,43,36,29,78,51,34,30.06,29.97,11,2,11,0.00
2012-11-7,68,56,41,38,31,26,56,40,30,30.12,30.03,10,1,10,0.00
2012-11-8,72,60,46,46,38,29,56,44,34,30.03,29.83,21,5,21,0.00
2012-11-9,77,68,57,60,54,42,82,62,51,29.91,29.80,22,4,22,0.00
2012-11-10,75,70,63,59,56,54,81,62,52,29.91,29.74,0,0,0,0.00
2012-11-11,70,52,34,61,44,25,85,74,63,30.24,29.68,15,3,15,0.94
2012-11-12,58,44,30,34,27,23,74,52,36,30.42,30.24,11,1,11,0.00
2012-11-13,63,49,34,34,26,22,66,42,28,30.42,30.27,11,1,11,0.00
2012-11-14,64,51,40,35,28,22,58,41,32,30.36,30.21,13,2,13,0.00
2012-11-15,65,52,39,35,30,25,61,43,33,30.33,30.21,11,1,11,0.00
2012-11-16,68,53,38,40,32,28,72,47,32,30.36,30.30,6,0,6,0.00
2012-11-17,63,53,42,36,30,26,60,42,28,30.36,30.21,13,2,13,0.00
2012-11-18,50,47,47,29,29,28,49,49,44,30.24,30.12,17,2,17,0.00
2012-11-19,47,47,47,29,29,29,49,49,49,30.15,30.03,13,2,13,0.00
2012-11-20,47,47,47,29,29,29,49,49,49,30.18,30.09,8,0,8,0.00
2012-11-21,47,47,47,29,29,29,49,49,49,30.21,30.03,13,2,13,0.00
2012-11-22,79,50,47,50,31,29,57,49,44,30.18,29.85,18,1,18,0.00
2012-11-23,60,50,36,39,26,16,62,41,30,30.44,30.18,20,4,20,0.00
2012-11-24,55,45,30,26,22,16,56,41,31,30.39,29.97,15,3,15,0.00
2012-11-25,66,54,41,36,29,19,49,39,32,29.97,29.38,11,2,11,0.00
2012-11-26,65,46,37,33,31,23,59,55,39,30.33,29.83,28,8,28,0.00
2012-11-27,52,41,28,28,24,20,72,52,38,30.42,30.21,9,2,9,0.00
2012-11-28,59,48,34,34,30,22,74,51,38,30.36,29.18,15,5,15,0.00
2012-11-29,68,54,42,40,34,31,64,47,32,30.15,29.41,23,6,23,0.00
2012-11-30,65,56,48,55,45,30,84,66,47,30.06,28.14,15,4,15,0.00
2012-12-1,75,67,59,61,58,54,92,76,54,29.94,21.32,32,10,32,0.00
2012-12-2,76,68,58,60,56,50,92,70,41,30.00,20.38,20,5,20,0.00
2012-12-3,74,68,59,60,57,48,81,69,56,28.85,20.38,0,0,0,0.04
2012-12-4,66,57,48,48,35,27,66,46,31,30.21,23.24,17,4,17,0.00
2012-12-5,64,52,38,36,30,27,68,44,30,30.24,23.39,15,4,17,0.00
2012-12-6,60,53,46,49,43,33,85,69,53,29.35,20.02,22,6,22,0.00
2012-12-7,56,54,51,54,50,46,94,89,78,29.83,20.35,9,0,9,0.00
2012-12-8,56,52,49,52,48,45,93,86,76,22.30,18.46,0,0,0,0.00
2012-12-9,52,47,32,49,38,12,94,73,44,25.42,19.93,21,6,21,0.00
2012-12-10,41,33,25,19,13,8,52,44,39,29.88,17.98,15,1,15,0.00
2012-12-11,53,39,22,26,14,6,52,38,29,29.35,20.35,15,4,15,0.00
2012-12-12,54,43,29,27,15,8,43,33,27,25.63,18.49,20,7,20,0.00
2012-12-13,61,49,36,27,21,12,41,33,27,22.77,17.72,24,7,24,0.00
2012-12-14,53,47,42,43,28,20,89,49,37,17.72,17.72,17,1,17,0.04
2012-12-15,68,56,46,47,40,33,95,57,37,17.72,17.72,20,8,20,0.00
2012-12-16,70,55,45,40,35,31,70,49,28,17.72,17.72,17,4,17,0.00
2012-12-17,56,46,39,36,34,31,75,62,44,17.72,17.72,11,3,11,0.00
2012-12-18,66,52,40,40,33,28,75,51,34,17.72,17.72,11,3,11,0.00
2012-12-19,66,56,44,59,45,31,83,69,45,17.72,17.72,24,6,24,0.00
2012-12-20,57,41,31,37,21,10,62,45,34,17.72,17.72,30,7,30,0.00
2012-12-21,56,43,27,27,17,10,51,37,27,18.10,17.72,13,3,13,0.00
2012-12-22,63,50,36,28,20,15,43,31,19,18.49,17.72,19,7,19,0.00
2012-12-23,67,50,34,46,33,21,78,53,41,17.72,17.72,17,4,17,0.00
2012-12-24,40,33,26,22,19,16,68,58,47,20.91,17.72,15,2,15,0.00
2012-12-25,31,27,24,20,16,9,71,64,54,20.82,17.72,17,1,17,0.00
2012-12-26,37,28,17,16,12,5,59,50,42,17.72,17.72,15,2,15,0.00
2012-12-27,37,31,25,27,22,14,75,67,57,17.72,17.72,10,1,16,0.00
2012-12-28,37,32,25,30,23,10,80,69,53,17.72,17.72,11,1,11,0.00
2012-12-29,44,32,18,20,14,7,62,48,38,17.72,17.72,10,2,10,0.00
2012-12-30,45,35,24,25,19,12,71,53,41,17.72,17.72,17,2,17,0.00
2012-12-31,39,37,36,38,34,21,96,90,52,17.72,17.72,0,0,0,0.55
2013-1-1,39,33,24,38,28,16,94,83,72,17.72,17.72,13,3,13,0.04